Simultaneous Nadir Overpasses (SNOs) Predictions

Prediction of SNOs between LANDSAT-8 and NPP Satellite Orbit:

Table of predicted SNOs for the next 14.0 days since TLE Epoch: 4/4/2015
Index Date (LANDSAT-8) Time (LANDSAT-8) Lat,Lon (LANDSAT-8) SZA (LANDSAT-8 ) Date (NPP) Time (NPP) Lat,Lon (NPP) SZA (NPP ) Distance(km) Time Diff (sec)
1 04/04/2015 10:33:53 70.73, 18.61 65.01 04/04/2015 10:32:49 70.71, 18.69 65.00 3.28 64
2 04/04/2015 11:23:23 -70.62,-173.92 115.11 04/04/2015 11:23:31 -70.62,-173.84 115.11 3.05 8
3 04/04/2015 12:12:58 70.07, -7.06 64.36 04/04/2015 12:14:07 70.09, -5.70 64.33 51.61 69
4 04/07/2015 02:50:24 70.70, 134.44 63.97 04/07/2015 02:49:40 70.71, 134.48 63.98 1.65 44
5 04/07/2015 03:39:54 -70.59, -58.09 116.16 04/07/2015 03:40:22 -70.61, -58.05 116.14 2.38 28
6 04/09/2015 19:06:56 70.72,-109.68 62.98 04/09/2015 19:06:30 70.71,-109.74 62.97 2.42 26
7 04/09/2015 19:56:26 -70.61, 57.79 117.14 04/09/2015 19:57:12 -70.61, 57.73 117.15 2.28 46
8 04/12/2015 10:33:56 -71.31,-160.56 117.43 04/12/2015 10:32:47 -71.33,-162.33 117.36 63.11 69
9 04/12/2015 11:23:33 70.67, 6.08 61.94 04/12/2015 11:23:20 70.66, 6.11 61.94 0.95 13
10 04/12/2015 12:13:03 -70.57, 173.56 118.18 04/12/2015 12:14:02 -70.56, 173.58 118.18 0.70 59
11 04/15/2015 02:50:43 -70.87, -45.43 118.83 04/15/2015 02:49:30 -70.94, -45.87 118.75 17.84 73
12 04/15/2015 03:40:12 70.66, 121.90 60.96 04/15/2015 03:40:11 70.68, 121.85 60.98 3.24 1
13 04/15/2015 04:29:42 -70.56, -70.61 119.16 04/15/2015 04:30:53 -70.58, -70.67 119.14 3.02 71
14 04/17/2015 19:07:27 -70.74, 70.19 119.91 04/17/2015 19:06:17 -70.75, 70.21 119.89 1.92 70
15 04/17/2015 19:56:54 70.64,-122.32 59.98 04/17/2015 19:57:01 70.66,-122.32 60.00 2.39 7
16 04/17/2015 20:46:27 -70.38, 44.94 120.29 04/17/2015 20:47:39 -70.35, 45.49 120.33 20.96 72




NCC Satellite Simultaneous Nadir Overpasses (SNOs) Prediction Service
